COSMOS 2251 DEB, 36558

Orbit data source: Space-Track

COSMOS 2251 DEB, 36558 is space debris in LEO originally from a launch on Wed, 16 Jun 1993 UTC launched from the Plesetsk Missile And Space Complex (PKMTR). The debris from Iridium 33, an American commercial communications satellite, has been tracked extensively since its accidental collision with the defunct Russian satellite Cosmos 2251 in 2009. This event, occurring at high speed in low Earth orbit (LEO), generated thousands of pieces of space debris, significantly increasing the risk of further collisions. The Iridium 33 debris cloud has impacted space traffic management and orbital debris mitigation strategies, making it a subject of ongoing study in space situational awareness.

Loading next visibility...
Identifier
36558, 1993-036BDU
Orbit
LEO
Country
Flag of CISCIS
Related business
Manufacturer
Unknown
Mission
Spacecraft
Bus & Motor
Unknown
Mass
Unknown
Launch date (UTC)
1993-06-16 (33 years ago)
Launch vehicle
Unknown
Launch site
Plesetsk Missile And Space Complex (PKMTR)
Object type
Payload
Rocket body
Debris
Shape & HBR
Unknown shape, 0.1 m
Radar Cross Section
Small (<0.1 m²)

Expand to show TLE details & history
Last TLE update: 2 days ago

TLE from 2 days ago
0 COSMOS 2251 DEB
1 36558U 93036BDU 26234.86276688  .00002212  00000-0  49917-3 0  9996
2 36558  74.0422  34.6158 0012464  57.5524 302.6843 14.56878249889533
Epoch: 2026-08-22T20:42Z
TLE epoch observation values (Epoch: 2026-08-22T20:42:23.058Z)
Latitude
-0.00006°
Longitude
112.85263°
Altitude
701.149 km
Speed
7.508 km/s
True Right ascension
02h 18m 27s
True Declination
0° 00' 00"
Sunlit
Object was in full shadow at epoch
Visualization orbit readout
Latitude
Unknown
Longitude
Unknown
Altitude
Unknown
Speed
Unknown
Apparent Right ascension
Unknown
Apparent Declination
Unknown
Sunlit
N/A
Visualization observer readout
Local Sidereal Time
15:18:27
Azimuth
Unknown
Elevation
Unknown
Doppler factor
Unknown
Orbital elements
Apogee altitude
709.696 km
Perigee altitude
692.049 km
Semi-major axis
7,079.009 km
Eccentricity
0.00125
Inclination
74.0422°
RAAN
34.6158°
Arg. of periapsis
57.5524°
True anomaly
302.56399°
Mean anomaly
302.6843°
Eccentric anomaly
302.62415°
Mean motion
3.64405 °/min
Orbital period
98.79 mins
BSTAR
0.00049917
Loading maneuver chart data...
Computing Atmospheric mass density...

Documentation

Showing up to 5 results
|